Las Cruces, NM

6:57 AM MDT on August 20, 2017 (GMT -0600)
Las Cruces International

Weather History for KLRU - June, 2012

Change the Weather History Date:

Friday, June 1, 2012

  Actual Average Record
Temperature  
Mean Temperature 80 °F -  
Max Temperature 93 °F 90 °F 102 °F (1997)
Min Temperature 66 °F 61 °F 55 °F (2016)
Cooling Degree Days 14    
Growing Degree Days 30 (Base 50)    
Moisture  
Dew Point 42 °F    
Average Humidity 32    
Maximum Humidity 64    
Minimum Humidity 11    
Precipitation  
Precipitation 0.00 in - - ()
Sea Level Pressure  
Sea Level Pressure 30.01 in    
Wind  
Wind Speed 8 mph (SSE)    
Max Wind Speed 15 mph    
Max Gust Speed 20 mph    
Visibility 10 miles    
Events      
Averages and records for this station are not official NWS values.
T = Trace of Precipitation, MM = Missing Value Source: NWS Daily Summary

Daily Weather History Graph

Daily Weather History Graph

Search for Another Location

Airport or City:

Trip Planner

Search our weather history database for the weather conditions in past years. The results will help you decide how hot, cold, wet, or windy it might be!

Date:

Astronomy

Jun. 01, 2012 Rise Set
Actual Time 6:01 AM MDT 8:09 PM MDT
Civil Twilight 5:33 AM MDT 8:37 PM MDT
Nautical Twilight 4:59 AM MDT 9:12 PM MDT
Astronomical Twilight 4:22 AM MDT 9:48 PM MDT
Moon 5:21 PM MDT (6/1) 3:30 AM MDT (6/1)
Length of Visible Light 15h 04m
Length of Day
14h 08m
Waxing Gibbous, 89% of the Moon is Illuminated
Jun 1
Waxing Gibbous
Jun 4
Full
Jun 11
Last Quarter
Jun 19
New
Jun 26
First Quarter

Hourly Weather History & Observations

Time (MDT) Temp. Dew Point Humidity Pressure Visibility Wind Dir Wind Speed Gust Speed Precip Events Conditions
12:15 AM 73.4 °F 44.6 °F 36% 30.01 in 10.0 mi ESE 8.1 mph - N/A   Clear
12:35 AM 73.4 °F 46.4 °F 38% 30.01 in 10.0 mi ESE 6.9 mph - N/A   Clear
12:55 AM 71.6 °F 48.2 °F 43% 30.01 in 10.0 mi ESE 6.9 mph - N/A   Clear
1:15 AM 71.6 °F 50.0 °F 46% 30.01 in 10.0 mi SE 6.9 mph - N/A   Clear
1:35 AM 71.6 °F 50.0 °F 46% 30.01 in 10.0 mi ESE 6.9 mph - N/A   Clear
1:55 AM 71.6 °F 50.0 °F 46% 30.01 in 10.0 mi ESE 8.1 mph - N/A   Clear
2:15 AM 71.6 °F 50.0 °F 46% 30.01 in 10.0 mi SE 6.9 mph - N/A   Clear
2:35 AM 69.8 °F 50.0 °F 49% 30.00 in 10.0 mi SE 6.9 mph - N/A   Clear
2:55 AM 69.8 °F 50.0 °F 49% 30.00 in 10.0 mi SE 6.9 mph - N/A   Clear
3:15 AM 69.8 °F 51.8 °F 53% 30.00 in 10.0 mi SE 9.2 mph - N/A   Clear
3:35 AM 69.8 °F 51.8 °F 53% 30.00 in 10.0 mi SE 6.9 mph - N/A   Clear
3:55 AM 68.0 °F 51.8 °F 56% 30.00 in 10.0 mi SSE 5.8 mph - N/A   Clear
4:15 AM 68.0 °F 51.8 °F 56% 30.01 in 10.0 mi SSE 5.8 mph - N/A   Clear
4:35 AM 66.2 °F 51.8 °F 60% 30.01 in 10.0 mi South 4.6 mph - N/A   Clear
4:55 AM 66.2 °F 51.8 °F 60% 30.01 in 10.0 mi SSW 5.8 mph - N/A   Clear
5:15 AM 68.0 °F 51.8 °F 56% 30.02 in 10.0 mi South 5.8 mph - N/A   Clear
5:35 AM 68.0 °F 51.8 °F 56% 30.03 in 10.0 mi SSE 6.9 mph - N/A   Clear
5:55 AM 68.0 °F 51.8 °F 56% 30.04 in 10.0 mi SSE 9.2 mph - N/A   Clear
6:15 AM 66.2 °F 53.6 °F 64% 30.04 in 10.0 mi SE 8.1 mph - N/A   Clear
6:35 AM 66.2 °F 53.6 °F 64% 30.05 in 10.0 mi SSE 6.9 mph - N/A   Clear
6:55 AM 68.0 °F 53.6 °F 60% 30.06 in 10.0 mi SE 8.1 mph - N/A   Clear
7:15 AM 69.8 °F 55.4 °F 60% 30.06 in 10.0 mi ESE 13.8 mph - N/A   Clear
7:35 AM 69.8 °F 55.4 °F 60% 30.07 in 10.0 mi ESE 10.4 mph - N/A   Clear
7:55 AM 71.6 °F 55.4 °F 57% 30.07 in 10.0 mi ESE 10.4 mph - N/A   Clear
8:15 AM 71.6 °F 55.4 °F 57% 30.08 in 10.0 mi SE 10.4 mph - N/A   Clear
8:35 AM 73.4 °F 53.6 °F 50% 30.08 in 10.0 mi SE 8.1 mph - N/A   Clear
8:55 AM 73.4 °F 53.6 °F 50% 30.09 in 10.0 mi SSE 9.2 mph - N/A   Clear
9:15 AM 75.2 °F 53.6 °F 47% 30.09 in 10.0 mi South 9.2 mph - N/A   Clear
9:35 AM 77.0 °F 53.6 °F 44% 30.08 in 10.0 mi SE 10.4 mph - N/A   Clear
9:55 AM 77.0 °F 53.6 °F 44% 30.08 in 10.0 mi SSE 8.1 mph - N/A   Clear
10:15 AM 78.8 °F 53.6 °F 42% 30.08 in 10.0 mi SSE 9.2 mph - N/A   Clear
10:35 AM 80.6 °F 51.8 °F 37% 30.08 in 10.0 mi SSE 8.1 mph - N/A   Clear
10:55 AM 80.6 °F 50.0 °F 34% 30.08 in 10.0 mi SE 5.8 mph 9.2 mph N/A   Clear
11:15 AM 82.4 °F 50.0 °F 32% 30.08 in 10.0 mi SSE 8.1 mph 11.5 mph N/A   Clear
11:35 AM 82.4 °F 46.4 °F 28% 30.07 in 10.0 mi SE 10.4 mph - N/A   Clear
11:55 AM 84.2 °F 44.6 °F 25% 30.06 in 10.0 mi SSE 11.5 mph 17.3 mph N/A   Clear
12:15 PM 86.0 °F 42.8 °F 22% 30.06 in 10.0 mi South 13.8 mph 19.6 mph N/A   Clear
12:35 PM 86.0 °F 42.8 °F 22% 30.05 in 10.0 mi SSE 8.1 mph 18.4 mph N/A   Clear
12:55 PM 86.0 °F 41.0 °F 20% 30.05 in 10.0 mi SSE 10.4 mph 16.1 mph N/A   Clear
1:15 PM 87.8 °F 42.8 °F 21% 30.04 in 10.0 mi South 11.5 mph 17.3 mph N/A   Clear
1:35 PM 87.8 °F 42.8 °F 21% 30.04 in 10.0 mi SSE 8.1 mph 17.3 mph N/A   Clear
1:55 PM 87.8 °F 41.0 °F 19% 30.03 in 10.0 mi SSE 3.5 mph 11.5 mph N/A   Clear
2:15 PM 87.8 °F 37.4 °F 17% 30.03 in 10.0 mi SSE 9.2 mph - N/A   Clear
2:35 PM 91.4 °F 35.6 °F 14% 30.02 in 10.0 mi South 11.5 mph 17.3 mph N/A   Clear
2:55 PM 89.6 °F 35.6 °F 15% 30.01 in 10.0 mi SW 6.9 mph 17.3 mph N/A   Clear
3:15 PM 89.6 °F 33.8 °F 14% 30.00 in 10.0 mi South 8.1 mph 18.4 mph N/A   Clear
3:35 PM 91.4 °F 33.8 °F 13% 29.99 in 10.0 mi SW 15.0 mph 19.6 mph N/A   Clear
3:55 PM 91.4 °F 32.0 °F 12% 29.98 in 10.0 mi SSE 8.1 mph 17.3 mph N/A   Clear
4:15 PM 93.2 °F 32.0 °F 11% 29.97 in 10.0 mi South 10.4 mph 16.1 mph N/A   Clear
4:35 PM 93.2 °F 32.0 °F 11% 29.96 in 10.0 mi South 12.7 mph 18.4 mph N/A   Clear
4:55 PM 91.4 °F 32.0 °F 12% 29.95 in 10.0 mi South 8.1 mph 16.1 mph N/A   Clear
5:15 PM 93.2 °F 32.0 °F 11% 29.95 in 10.0 mi South 13.8 mph 17.3 mph N/A   Clear
5:35 PM 91.4 °F 30.2 °F 11% 29.95 in 10.0 mi SSW 6.9 mph - N/A   Clear
5:55 PM 91.4 °F 30.2 °F 11% 29.95 in 10.0 mi SSW 10.4 mph - N/A   Clear
6:15 PM 91.4 °F 30.2 °F 11% 29.94 in 10.0 mi South 6.9 mph - N/A   Clear
6:35 PM 89.6 °F 30.2 °F 12% 29.94 in 10.0 mi South 8.1 mph - N/A   Clear
6:55 PM 89.6 °F 30.2 °F 12% 29.93 in 10.0 mi SSW 12.7 mph - N/A   Clear
7:15 PM 89.6 °F 30.2 °F 12% 29.93 in 10.0 mi South 9.2 mph - N/A   Clear
7:35 PM 87.8 °F 30.2 °F 13% 29.94 in 10.0 mi South 11.5 mph - N/A   Clear
7:55 PM 87.8 °F 28.4 °F 12% 29.94 in 10.0 mi South 10.4 mph - N/A   Clear
8:15 PM 86.0 °F 28.4 °F 12% 29.94 in 10.0 mi South 9.2 mph - N/A   Clear
8:35 PM 82.4 °F 28.4 °F 14% 29.93 in 10.0 mi South 8.1 mph - N/A   Clear
8:55 PM 82.4 °F 28.4 °F 14% 29.94 in 10.0 mi South 8.1 mph - N/A   Clear
9:15 PM 82.4 °F 26.6 °F 13% 29.94 in 10.0 mi SSW 9.2 mph - N/A   Clear
9:35 PM 80.6 °F 26.6 °F 14% 29.94 in 10.0 mi SSW 6.9 mph - N/A   Clear
9:55 PM 80.6 °F 26.6 °F 14% 29.95 in 10.0 mi SSW 8.1 mph - N/A   Clear
10:15 PM 78.8 °F 26.6 °F 15% 29.95 in 10.0 mi SSW 8.1 mph - N/A   Clear
10:35 PM 78.8 °F 26.6 °F 15% 29.95 in 10.0 mi SSW 6.9 mph - N/A   Clear
10:55 PM 77.0 °F 26.6 °F 16% 29.94 in 10.0 mi SSW 6.9 mph - N/A   Clear
11:15 PM 77.0 °F 26.6 °F 16% 29.94 in 10.0 mi SW 5.8 mph - N/A   Clear
11:35 PM 75.2 °F 26.6 °F 17% 29.94 in 10.0 mi SSW 6.9 mph - N/A   Clear
11:55 PM 75.2 °F 26.6 °F 17% 29.94 in 10.0 mi SSW 8.1 mph - N/A   Clear